sat.trackr.live / text

‹ back to catalog

ICEYE-X52

NORAD 64572 · 2025-135AW

PAYLOAD ACTIVE UNKNOWN

§ Identity

Operator
Country
FIN
Launch date
2025-06-23
Launch site
AFWTR
Launch vehicle
Mass (kg)
RCS (m²)

External: N2YO · Heavens-Above · Gunter

§ Orbital elements

Epoch: 2026-05-25T03:45:37.717920Z

Period
96.42 min
Inclination
97.7720°
Eccentricity
0.0003130
Mean motion
14.93461530 rev/d
Perigee alt
585.0 km
Apogee alt
589.3 km
Semi-major
6,965.3 km
B*
1.3080e-4
RAAN
259.6636°
Arg perigee
67.8894°
Mean anomaly
292.2658°
Rev number
5,044

§ Raw data

ICEYE-X521 64572U 25135AW  26145.15668655  .00001319  00000+0  13080-3 0  99982 64572  97.7720 259.6636 0003130  67.8894 292.2658 14.93461530 50447

JSON: /api/v1/satellites/64572 · /tle

For live sub-satellite position, see the globe view (requires WebGL).

§ Visibility from observer

Set your observer location to see the next 7 days of passes ≥ 10°. The values pass through the URL so the page stays shareable.

No JS? Fill the form by hand. The geolocation button needs JavaScript.

§ Radio — SatNOGS DB

ModeDescriptionDownlinkUplink
FM S-band telemetry 2.264 GHz

1 transmitter · refreshed weekly from db.satnogs.org